Regional Weather Roundup
Issued by NWS

Home | Current Version | Previous Version | Text Only | Print | Product List | Glossary Off
Versions: 1 2 3 4 5 6 7 8 9 10 11 12 13 14 15 16 17 18 19 20 21 22 23 24 25 26 27 28 29 30 31 32 33 34 35 36 37 38 39 40 41 42 43 44 45 46 47 48 49 50

000
ASUS45 KPSR 202210
RWRAZ

ARIZONA REGIONAL HOURLY WEATHER ROUNDUP
NATIONAL WEATHER SERVICE PHOENIX AZ
300 PM MST SAT SEP 20 2014

NOTE: FAIR INDICATES FEW OR NO CLOUDS BELOW 12,000 FEET WITH NO
SIGNIFICANT WEATHER AND/OR OBSTRUCTIONS TO VISIBILITY.

AZZ001>003-036-202300-
NORTHWEST ARIZONA

CITY           SKY/WX    TMP DP  RH WIND       PRES   REMARKS
BULLHEAD CITY  MOSUNNY  100  54  20 S10G16    29.76F
KINGMAN        SUNNY     90  48  23 SW9       29.96F
$$

AZZ004>008-015-016-018-202300-
NORTH CENTRAL ARIZONA

CITY           SKY/WX    TMP DP  RH WIND       PRES   REMARKS
GRAND CANYON   CLOUDY    68  53  58 W9        30.20S
PRESCOTT       MOSUNNY   84  53  34 SW15      30.07F
FLAGSTAFF      TSTM      66  56  70 SW12      30.22S
PAYSON         MOSUNNY   82  57  42 W10G17    30.10F
PAGE           MOSUNNY   92  42  17 NE9       29.98F
$$

AZZ009>014-017-202300-
NORTHEAST ARIZONA

CITY           SKY/WX    TMP DP  RH WIND       PRES   REMARKS
WINSLOW        MOSUNNY   93  43  17 NE10      30.02F
SAINT JOHNS    PTSUNNY   87  43  21 SE13      30.07F
WINDOW ROCK    PTSUNNY   86  37  17 E8        30.17
SHOW LOW       CLOUDY    75  50  41 SE6       30.18F
$$

AZZ023-202300-
GREATER PHOENIX AREA

CITY           SKY/WX    TMP DP  RH WIND       PRES   REMARKS
PHOENIX        MOSUNNY   97  63  32 SW9       29.79F
BUCKEYE          N/A     95  63  34 S5        29.81S
GLENDALE       PTSUNNY   99  61  28 S7        29.81F
LUKE AFB       SUNNY     98  60  28 S9        29.79F
DEER VALLEY    SUNNY     94  58  29 VRB5      29.82F
SCOTTSDALE     SUNNY     95  57  27 VRB3      29.83F
MESA-FALCON    PTSUNNY   95  63  34 W9        29.82F
MESA-GATEWAY   PTSUNNY   95  57  28 W6        29.84F
CHANDLER       PTSUNNY   95  59  30 W6        29.82F
$$

AZZ027-028-202300-
SOUTHWEST MARICOPA COUNTY AND PINAL COUNTY

CITY           SKY/WX    TMP DP  RH WIND       PRES   REMARKS
CASA GRANDE    PTSUNNY   95  63  34 SW6       29.84S
GILA BEND      MOCLDY    97  61  30 E10       29.81F
$$

AZZ503-504-507>509-202300-
SOUTHEAST ARIZONA

CITY           SKY/WX    TMP DP  RH WIND       PRES   REMARKS
TUCSON         PTSUNNY   87  64  46 S3        29.95F
DAVIS-MONTHAN  PTSUNNY   86  65  49 S5        29.93F
NOGALES        MOSUNNY   83  64  52 VRB7      30.02F
SIERRA VISTA   MOSUNNY   79  62  56 VRB3      30.07F
DOUGLAS        PTSUNNY   84  64  50 NW12      30.02F
SAFFORD        MOSUNNY   90  60  36 SW7       29.92F
$$

AZZ020-021-025-026-031-202300-
SOUTHWEST ARIZONA

CITY           SKY/WX    TMP DP  RH WIND       PRES   REMARKS
YUMA           MOSUNNY  102  54  20 S16G24    29.74F HX 100
$$

CAZ031-033-041-043-047-048-061-202300-
SOUTHERN CALIFORNIA

CITY           SKY/WX    TMP DP  RH WIND       PRES   REMARKS
DOWNTOWN L.A.  SUNNY     77  61  57 VRB3      29.89F
L.A. AIRPORT   MOSUNNY   75  61  61 W10       29.91F
SAN DIEGO      MOSUNNY   76  59  55 W8        29.91F
BURBANK        SUNNY     77  59  53 CALM      29.90F
ONTARIO        MOSUNNY   81  59  47 W10       29.89F
RIVERSIDE      SUNNY     80  61  52 W12G17    29.89F
PALM SPRINGS   SUNNY    100  51  19 SE10      29.77F
EL CENTRO NAS  MOSUNNY  100  58  24 SE9       29.72F
IMPERIAL       SUNNY    100  58  24 SE10      29.72F
BLYTHE         SUNNY    101  48  16 VRB6G20   29.74F
NEEDLES        MOSUNNY  100  54  21 SW8G21    29.77F
$$

NVZ020-UTZ003-202300-
SOUTHERN NEVADA-UTAH

CITY           SKY/WX    TMP DP  RH WIND       PRES   REMARKS
LAS VEGAS      PTSUNNY   96  44  16 S6        29.81F
SALT LAKE CITY MOSUNNY   84  49  29 W12       30.09F
$$

NMZ009-TXZ055-202300-
NEW MEXICO-WEST TEXAS

CITY           SKY/WX    TMP DP  RH WIND       PRES   REMARKS
ALBUQUERQUE    MOSUNNY   90  39  16 SE21      30.09F
EL PASO        MOSUNNY   87  60  40 NW5       30.00F
$$


........................KEY........................
SKY/WX - SKY CONDITION/WEATHER
TMP    - TEMPERATURE IN FAHRENHEIT
DP     - DEW POINT IN FAHRENHEIT
RH     - RELATIVE HUMIDITY IN PERCENT
WIND   - DIRECTION AND SPEED IN MILES PER HOUR (MPH)
VRB    - VARIABLE WIND DIRECTION
PRES   - MEAN SEA LEVEL PRESSURE IN INCHES OF MERCURY
         F - FALLING PRESSURE   R - RISING PRESSURE
         S - STEADY PRESSURE
VSB    - VISIBILITY IN MILES
HX     - HEAT INDEX IN FAHRENHEIT
WCI    - WIND CHILL INDEX IN FAHRENHEIT
TC     - TEMPERATURE IN CELSIUS WHICH IS ALSO KNOWN AS
         TEMPERATURE IN CENTIGRADE
AFB    - AIR FORCE BASE
         LUKE AFB IS LUKE AIR FORCE BASE
         DAVIS-MONTHAN IS DAVIS-MONTHAN AIR FORCE BASE
NAS    - NAVAL AIR STATION
         EL CENTRO NAS IS EL CENTRO NAVAL AIR STATION
N/A    - NOT AVAILABLE


USA.gov is the U.S. government's official web portal to all federal, state and local government web resources and services.